TimeEDT,TemperatureF,Dew PointF,Humidity,Sea Level PressureIn,VisibilityMPH,Wind Direction,Wind SpeedMPH,Gust SpeedMPH,PrecipitationIn,Events,Conditions,WindDirDegrees,DateUTC
12:53 AM,37.0,28.0,70,30.08,10.0,Calm,Calm,-,N/A,,Mostly Cloudy,0,2012-10-11 04:53:00
1:53 AM,35.1,27.0,72,30.08,10.0,Calm,Calm,-,N/A,,Clear,0,2012-10-11 05:53:00
2:53 AM,36.0,27.0,70,30.06,10.0,South,4.6,-,N/A,,Partly Cloudy,180,2012-10-11 06:53:00
3:53 AM,36.0,27.0,70,30.03,10.0,South,4.6,-,N/A,,Clear,170,2012-10-11 07:53:00
4:53 AM,39.0,28.0,65,30.04,10.0,SW,4.6,-,N/A,,Overcast,230,2012-10-11 08:53:00
5:53 AM,39.0,33.1,79,30.04,10.0,South,4.6,-,0.00,Rain,Light Rain,180,2012-10-11 09:53:00
6:53 AM,39.0,35.1,86,30.01,10.0,Calm,Calm,-,0.01,,Overcast,0,2012-10-11 10:53:00
7:49 AM,39.2,35.6,87,29.96,7.0,South,3.5,-,0.00,Rain,Light Rain,190,2012-10-11 11:49:00
7:53 AM,39.9,35.1,83,29.97,6.0,Variable,3.5,-,0.01,Rain,Light Rain,0,2012-10-11 11:53:00
8:30 AM,41.0,37.4,87,29.93,6.0,Variable,4.6,-,0.03,Rain,Light Rain,0,2012-10-11 12:30:00
8:53 AM,41.0,37.0,86,29.92,10.0,Variable,3.5,-,0.04,Rain,Light Rain,0,2012-10-11 12:53:00
9:53 AM,45.0,39.0,80,29.90,7.0,SSW,8.1,20.7,0.03,Rain,Light Rain,210,2012-10-11 13:53:00
10:53 AM,46.9,41.0,80,29.90,10.0,SW,9.2,19.6,0.01,Rain,Light Rain,230,2012-10-11 14:53:00
11:53 AM,46.9,42.1,83,29.90,8.0,WSW,6.9,17.3,0.02,Rain,Light Rain,240,2012-10-11 15:53:00
12:53 PM,45.0,39.0,80,29.95,6.0,West,17.3,24.2,0.06,Rain,Light Rain,270,2012-10-11 16:53:00
1:53 PM,45.0,39.9,82,29.95,8.0,WSW,6.9,-,0.01,Rain,Light Rain,240,2012-10-11 17:53:00
2:53 PM,46.0,41.0,83,29.98,10.0,West,6.9,-,0.01,,Overcast,270,2012-10-11 18:53:00
3:53 PM,46.9,39.0,74,30.01,10.0,West,10.4,-,N/A,,Overcast,280,2012-10-11 19:53:00
4:53 PM,46.9,34.0,61,30.04,10.0,WNW,15.0,23.0,N/A,,Overcast,300,2012-10-11 20:53:00
5:53 PM,46.0,34.0,63,30.06,10.0,WNW,9.2,-,N/A,,Overcast,290,2012-10-11 21:53:00
6:53 PM,46.0,33.1,61,30.08,10.0,WNW,9.2,-,N/A,,Mostly Cloudy,300,2012-10-11 22:53:00
7:53 PM,44.1,32.0,63,30.11,10.0,WNW,6.9,-,N/A,,Mostly Cloudy,290,2012-10-11 23:53:00
8:53 PM,44.1,28.9,55,30.13,10.0,WNW,10.4,-,N/A,,Mostly Cloudy,290,2012-10-12 00:53:00
9:53 PM,44.1,27.0,51,30.15,10.0,WNW,9.2,-,N/A,,Mostly Cloudy,300,2012-10-12 01:53:00
10:53 PM,43.0,27.0,53,30.18,10.0,NW,6.9,-,N/A,,Mostly Cloudy,310,2012-10-12 02:53:00
11:53 PM,43.0,30.0,60,30.19,10.0,NW,10.4,-,N/A,,Overcast,310,2012-10-12 03:53:00